Terminal Aerodrome Forecast
Issued by NWS

Current Version | Previous Version | Text Only | Print | Product List | Glossary Off
Versions: 1 2 3 4 5 6 7 8 9 10 11 12 13 14 15 16 17 18 19 20 21

371
FTUS41 KPBZ 170116 AAA
TAFMGW
TAF AMD
KMGW 170116Z 1701/1724 26010KT P6SM VCSH OVC030
      TEMPO 1701/1703 2SM -SHSN OVC025
     FM170700 25011G19KT 5SM -SHSN OVC025
     FM171700 25012G24KT P6SM VCSH OVC025=

USA.gov is the U.S. government's official web portal to all federal, state and local government web resources and services.